Theta_e
349 356 357 351 330 325 316 318 325 321 322 329 331 328 328 330 323 321 344 347 347 347 348 349 352 352 353 353 356 357 354 356 358 358 359 360 360 360 361 361 362 362 361 362 361 361 362 361 361
350 350 353 344 323 314 316 323 320 324 329 334 333 331 328 325 334 337 341 347 347 346 347 346 351 352 352 353 354 353 355 356 357 358 360 361 361 361 361 361 362 361 360 361 361 361 360 360 360
345 348 343 331 324 315 316 324 326 328 332 331 329 334 328 328 335 339 346 349 349 348 348 347 351 350 350 351 352 352 351 353 357 359 359 360 360 358 359 362 362 361 360 360 360 358 358 359 361
349 348 343 325 317 322 323 327 328 328 331 333 332 325 334 339 339 344 348 348 347 346 346 350 351 350 350 350 350 350 351 351 354 357 359 360 361 361 360 360 359 358 358 358 358 356 359 361 359
351 340 327 320 320 325 329 330 331 328 329 329 329 323 331 341 345 347 347 346 345 345 346 348 353 349 349 351 349 351 351 352 356 358 359 360 361 360 359 359 358 358 358 357 356 357 360 362 359
339 336 320 316 320 325 329 331 330 329 331 329 326 329 333 343 343 344 346 346 347 346 346 348 353 352 349 349 347 352 353 354 355 358 359 360 360 360 359 358 357 357 356 356 356 357 359 360 358
335 328 319 320 321 323 327 332 328 328 328 327 329 325 335 339 344 345 346 348 349 350 352 353 351 353 351 351 350 352 352 354 357 360 360 361 361 361 360 359 358 357 357 357 356 356 356 357 357
341 329 321 322 320 321 329 331 331 329 328 336 333 324 329 339 344 345 347 348 349 350 353 357 358 356 356 355 353 353 355 357 360 361 360 362 361 361 361 363 362 357 356 356 355 355 354 355 355
339 327 319 320 321 325 331 328 334 334 330 331 334 330 337 342 344 344 345 347 348 348 352 352 353 359 358 356 355 356 359 360 361 361 358 357 355 356 355 355 358 359 359 359 359 359 359 361 358
334 325 323 330 330 328 330 329 330 328 331 332 329 333 339 341 341 340 340 341 343 348 351 352 351 354 356 355 356 360 357 358 357 359 361 358 359 355 353 356 355 356 356 356 357 357 360 359 358
333 322 329 332 334 332 330 329 332 327 325 330 329 330 336 338 339 339 340 343 344 348 350 354 356 358 354 356 355 354 353 352 355 361 359 359 357 357 357 358 359 360 359 358 358 359 356 354 354
326 327 328 331 333 329 328 331 328 331 331 333 334 335 335 335 334 335 337 340 344 347 349 352 356 359 358 353 350 351 350 351 352 356 359 358 354 358 360 358 359 362 359 361 360 356 359 356 357
325 325 328 330 331 332 332 328 329 331 333 336 337 337 336 337 337 338 337 339 343 345 347 350 355 358 358 355 352 352 351 350 353 354 355 356 355 358 359 363 359 360 361 359 359 358 357 355 355
327 327 328 330 329 328 329 327 330 333 335 336 336 337 338 339 340 340 338 337 340 343 344 348 352 357 358 357 359 357 356 355 355 355 356 360 360 361 358 360 358 359 362 362 363 362 357 358 357
330 325 328 329 328 326 332 324 323 334 335 334 335 337 338 339 341 340 339 338 341 341 342 345 350 354 357 359 359 355 355 354 354 355 360 362 363 364 365 360 360 361 365 370 366 364 362 359 357
326 326 319 326 328 326 326 315 326 335 333 332 334 335 337 339 340 341 341 340 341 341 345 346 345 352 356 359 359 356 358 357 354 355 356 361 363 366 366 361 361 368 368 366 362 360 356 356 357
324 317 319 319 324 324 321 316 323 330 331 332 333 335 336 338 341 343 343 343 344 348 346 345 349 350 354 359 359 361 361 356 353 356 357 361 361 362 364 362 365 370 363 363 364 362 362 359 358
311 315 317 318 323 318 315 317 322 328 329 333 333 334 336 337 339 343 344 345 347 349 351 349 350 353 357 357 360 357 357 357 356 357 354 362 360 361 365 362 366 367 363 360 362 365 363 360 359
317 316 314 320 324 320 316 316 320 327 327 329 333 333 334 336 341 343 345 346 347 349 350 350 352 357 357 354 350 351 351 357 354 358 355 360 359 364 368 359 363 366 362 364 369 365 363 359 360
314 314 316 321 323 322 320 317 321 326 326 328 333 333 333 336 340 342 344 346 347 349 350 352 355 358 357 354 354 354 352 354 355 357 361 359 358 365 364 363 361 366 362 367 367 366 358 359 358
312 313 315 316 321 322 319 317 320 324 327 329 334 335 335 334 338 342 343 344 346 347 350 352 355 358 359 358 357 364 357 358 351 353 355 355 357 361 366 362 365 366 364 357 363 363 362 352 355
309 317 317 318 317 313 320 309 318 321 322 327 327 332 334 337 339 341 343 344 345 348 350 352 356 357 359 361 356 358 349 346 347 351 354 357 360 360 363 364 364 366 361 362 361 356 360 359 349
312 319 318 319 316 316 316 310 315 321 317 325 327 330 335 336 338 339 342 345 346 348 349 351 356 357 357 359 360 351 352 348 351 351 359 359 362 361 360 364 365 365 358 362 363 363 363 360 354
321 317 317 317 315 308 313 311 313 317 320 322 327 328 334 336 337 340 342 346 347 348 350 350 355 357 357 358 357 357 356 353 350 352 352 351 353 355 361 359 362 364 363 363 362 366 364 364 364
318 313 305 304 306 303 315 312 313 320 323 325 327 330 334 337 337 339 341 344 346 347 349 349 354 355 357 356 356 355 355 356 358 357 350 353 350 351 357 362 361 357 362 364 364 367 365 364 361
314 311 303 297 300 303 314 308 314 323 326 330 331 330 334 336 339 339 342 345 343 348 349 350 352 354 354 355 357 359 359 351 350 357 351 350 350 352 357 360 362 363 361 360 364 358 357 365 361
311 309 314 307 308 305 309 313 321 326 325 327 329 330 331 335 338 339 342 345 347 348 350 351 352 355 354 353 358 359 358 356 354 358 360 353 358 354 359 360 360 362 362 361 363 356 360 361 362
314 316 307 308 298 299 305 307 314 319 323 327 328 329 333 331 334 339 342 344 347 349 351 353 354 356 355 354 355 354 356 359 359 359 358 358 359 361 361 360 361 361 362 363 364 358 360 362 357
309 309 310 309 309 300 301 308 321 321 326 328 328 331 331 331 334 338 341 344 347 349 350 352 354 355 355 356 356 356 357 358 359 357 359 362 364 364 363 363 362 361 361 363 363 363 360 359 359
314 310 312 304 303 309 306 308 322 324 326 329 330 331 332 332 334 340 340 344 344 347 352 352 353 353 355 356 357 356 358 359 357 358 359 359 359 362 364 362 360 361 361 362 362 359 357 358 357
Wind_Speed
10 8 3 5 7 4 7 7 3 9 7 6 6 5 14 11 9 9 9 11 16 14 14 11 11 14 15 15 17 19 18 16 13 12 12 12 13 12 12 13 15 15 14 14 14 15 14 13 13
5 3 4 3 7 7 8 5 7 8 10 11 10 5 9 14 15 15 12 11 13 13 16 12 11 14 16 15 17 20 18 14 15 10 12 13 12 12 12 14 14 14 13 14 14 14 13 12 10
0 5 4 3 3 8 10 6 7 10 11 6 5 10 7 9 8 7 15 13 13 14 16 13 15 16 16 16 15 16 16 13 13 11 11 12 12 12 12 13 14 13 14 12 12 12 10 10 10
4 3 4 6 8 8 11 9 12 12 9 4 10 12 9 11 5 11 14 15 16 16 18 15 16 15 12 14 13 11 10 12 11 9 9 13 12 12 12 13 13 13 12 10 11 10 11 8 10
2 4 3 6 7 11 10 9 9 9 6 8 5 10 12 11 15 15 15 14 15 18 17 15 15 16 10 11 9 9 9 9 8 7 9 10 11 12 12 12 12 12 11 9 9 11 11 13 10
3 3 7 6 10 9 8 6 5 7 8 9 15 17 9 13 14 14 13 13 14 14 17 15 15 16 9 10 6 9 8 7 8 7 9 9 12 11 12 12 12 10 9 7 8 9 9 9 7
3 2 3 9 12 9 9 4 5 7 9 9 13 15 11 14 14 13 12 11 11 13 14 12 14 13 18 13 9 6 4 6 8 10 10 11 12 12 12 11 10 9 7 7 7 6 6 5 5
2 1 7 6 11 10 9 7 8 7 9 9 11 9 17 16 14 13 12 11 11 12 13 12 12 11 9 7 15 12 11 10 11 12 11 12 12 10 8 12 8 7 6 6 5 4 3 2 2
3 4 4 8 10 9 11 12 7 7 12 6 3 15 20 18 15 13 12 11 10 9 10 13 15 11 9 10 8 10 11 12 11 10 7 5 7 7 11 8 5 4 3 3 3 2 1 4 6
3 2 2 4 6 10 9 9 10 10 10 8 14 19 19 18 15 15 13 12 12 11 9 8 11 14 14 13 7 5 6 7 6 6 5 5 5 6 7 7 4 2 2 3 3 3 6 11 2
4 3 6 7 7 3 11 9 6 9 6 12 18 22 20 18 14 12 12 11 11 9 8 9 8 7 7 8 8 5 5 6 6 6 3 5 3 4 4 5 5 4 6 3 6 6 1 6 3
9 6 4 5 4 4 7 5 10 7 6 15 17 18 18 17 14 13 12 12 11 9 8 7 7 7 6 7 6 6 6 5 5 6 2 3 3 4 3 4 4 2 4 4 3 6 5 6 4
14 7 6 3 7 7 4 3 7 8 13 16 17 15 16 14 13 11 10 11 11 10 8 7 7 6 7 5 6 6 6 5 5 4 5 3 4 4 5 3 4 4 3 4 4 4 5 4 4
11 9 10 5 3 8 3 2 5 7 15 16 16 14 14 13 13 11 10 11 10 9 9 9 7 6 6 7 6 5 4 5 4 4 5 5 4 4 4 3 4 4 2 3 2 4 3 2 3
17 14 13 9 8 2 10 5 6 7 14 16 14 12 12 12 11 11 10 10 10 9 10 9 8 8 6 6 6 4 5 5 5 4 4 5 4 5 4 4 4 3 4 1 3 2 2 1 2
8 6 6 7 4 6 5 1 3 7 10 14 13 12 11 11 12 10 10 10 10 9 9 9 8 9 7 5 3 4 4 3 3 3 3 4 5 5 3 3 4 4 2 3 2 2 2 1 2
8 4 7 6 6 5 2 3 4 2 6 12 13 13 12 12 11 10 11 11 12 10 10 10 9 10 7 7 5 4 3 3 4 4 3 5 4 5 4 4 4 3 4 4 2 2 2 2 2
2 6 4 6 8 2 5 6 6 1 5 12 14 13 12 13 13 12 12 11 11 11 10 9 8 8 6 5 4 3 3 3 3 3 4 2 3 4 2 4 4 3 3 5 5 4 3 4 4
3 5 7 8 7 4 4 1 3 7 8 13 14 15 15 13 12 13 11 11 11 11 11 10 9 8 7 6 6 5 4 2 3 2 2 2 2 3 2 3 3 2 5 5 3 1 2 2 4
4 4 8 6 4 5 6 8 8 8 5 12 15 14 14 11 13 12 12 12 12 12 12 12 10 8 8 6 4 2 4 4 3 3 3 1 1 2 2 3 3 4 3 4 4 4 3 2 5
7 6 4 4 8 4 4 6 10 11 10 13 12 12 12 14 15 15 14 14 13 12 13 13 11 9 8 7 5 4 3 2 6 5 5 5 3 0 2 4 4 3 4 5 4 4 4 4 3
9 3 4 5 8 3 7 1 10 7 12 16 16 16 15 17 15 15 16 15 15 13 12 13 12 10 9 9 8 7 8 7 6 5 5 4 3 3 1 2 3 4 4 4 4 4 4 5 4
1 4 2 7 8 3 9 4 2 9 9 18 19 20 17 18 17 16 15 16 15 14 13 12 13 12 10 9 9 8 9 5 6 4 6 3 4 4 2 2 2 3 4 3 4 3 5 2 5
8 9 8 7 8 9 6 7 7 10 16 14 20 17 20 19 18 18 15 14 14 14 13 12 13 13 12 10 10 9 8 6 6 7 7 6 5 7 5 4 3 3 3 1 3 3 2 5 4
16 15 10 10 5 7 6 6 2 5 12 22 24 22 20 18 18 15 16 14 15 16 15 13 13 13 13 12 11 11 9 8 7 6 9 5 5 5 7 5 5 5 3 2 3 2 4 3 5
18 18 10 7 6 2 5 4 5 4 4 14 20 14 18 16 16 16 16 16 11 16 16 15 15 13 13 13 12 10 9 7 8 8 5 7 5 4 4 5 5 6 5 4 4 6 4 1 3
17 13 10 12 6 8 5 6 7 2 6 3 15 16 18 18 14 16 16 17 19 16 16 16 15 14 14 14 11 10 9 10 8 6 6 6 5 4 6 7 6 6 6 6 4 6 4 3 4
15 10 9 8 4 8 7 1 4 6 7 4 9 18 17 10 13 14 14 15 16 16 16 15 16 15 14 14 12 11 10 11 10 8 9 7 5 6 5 7 7 8 7 7 6 5 6 4 5
10 11 11 3 9 4 1 5 8 7 9 7 3 11 14 11 14 13 12 12 14 12 14 14 14 14 14 13 12 11 10 10 10 10 9 7 8 8 8 7 8 8 8 8 7 7 6 6 5
11 11 15 7 3 3 5 8 7 5 7 9 3 11 17 12 13 12 11 13 8 10 9 11 12 13 13 12 12 12 11 10 11 10 9 9 9 9 8 7 9 9 8 6 9 9 9 6 6
Wind_Direction
199 197 248 232 230 227 114 96 67 124 122 68 81 9 72 24 6 62 104 110 110 113 117 109 90 89 91 90 96 96 97 88 92 109 105 103 103 100 109 106 97 96 94 90 90 85 83 81 76
198 199 227 263 248 153 101 106 128 117 94 105 92 129 49 71 80 115 121 116 118 115 106 104 97 85 91 92 99 104 101 99 88 105 110 109 109 105 102 101 100 94 93 87 82 83 78 74 88
4 273 267 284 292 61 97 109 117 120 127 124 103 50 35 88 81 88 108 125 114 98 104 114 104 93 91 92 94 98 96 95 102 111 117 115 108 103 100 100 98 93 84 84 83 78 78 76 87
168 241 211 250 97 78 94 112 124 134 103 72 108 87 82 54 103 111 127 123 121 124 109 115 101 79 73 87 86 94 90 87 87 106 115 104 108 98 99 96 94 90 94 93 81 79 67 77 87
221 239 204 135 94 98 94 109 148 139 102 121 124 106 94 86 109 119 128 130 123 113 122 119 110 90 70 72 69 88 95 104 108 99 104 107 100 92 91 92 93 93 94 86 83 76 69 76 97
218 289 194 153 116 114 100 105 117 102 116 111 120 113 80 119 126 125 123 126 126 118 120 130 130 117 108 103 85 85 77 83 122 134 99 100 98 91 87 89 94 101 101 97 87 80 79 82 96
269 304 198 138 129 127 122 115 95 113 133 117 136 116 121 141 123 129 131 121 122 118 104 126 134 145 126 128 116 91 97 156 128 109 109 97 92 86 88 93 100 104 111 101 92 91 89 87 80
255 126 187 139 157 119 126 91 108 99 84 127 131 145 151 137 148 133 137 133 124 118 121 126 127 138 131 134 141 151 166 138 105 92 94 102 101 117 128 138 101 114 113 106 111 107 100 92 104
204 207 207 155 159 133 133 121 84 110 129 123 103 139 133 144 147 143 138 121 128 115 127 131 136 132 144 130 131 138 117 102 112 118 99 172 99 117 108 74 113 107 106 137 135 150 172 232 183
264 129 85 2 74 140 154 135 119 141 122 122 128 114 134 148 156 153 147 147 138 132 141 115 127 138 169 124 143 143 135 100 93 95 103 106 80 68 86 107 128 129 214 193 183 210 232 238 102
52 83 130 87 79 193 141 134 128 155 151 145 146 142 148 155 163 160 152 150 129 138 126 115 110 118 135 120 154 154 129 137 124 104 84 72 86 65 88 116 120 135 202 158 186 180 112 60 61
104 58 29 42 39 93 143 100 140 51 68 135 140 149 150 162 166 167 160 151 145 150 129 116 126 118 121 139 140 128 132 128 121 91 73 86 90 102 57 50 98 124 64 66 24 73 60 87 100
106 107 103 62 30 77 117 139 118 80 120 128 138 154 158 165 164 165 161 150 155 155 148 147 137 123 119 145 116 111 146 128 121 112 78 47 52 71 67 65 65 59 83 79 69 75 55 90 95
130 148 132 139 80 356 328 93 144 109 134 137 149 161 162 165 165 159 169 161 168 163 155 148 163 136 141 114 130 129 132 125 111 90 69 76 29 47 80 75 75 82 44 79 77 52 79 48 73
140 159 134 137 128 73 323 187 135 144 157 153 160 164 160 165 161 166 171 171 176 178 153 157 166 147 152 139 152 116 138 118 122 103 98 72 22 67 350 66 51 50 72 133 141 165 149 105 55
149 170 162 53 176 29 336 124 270 328 175 172 168 165 165 165 169 165 163 169 162 165 163 170 170 150 157 112 167 142 116 114 120 150 132 97 68 47 36 84 56 29 72 72 96 131 119 24 15
186 153 124 126 59 105 25 154 303 347 260 198 181 175 175 168 174 166 163 167 157 147 162 170 166 161 166 152 176 138 153 122 125 124 119 94 74 54 0 53 57 345 53 43 50 107 341 65 317
113 136 133 137 157 134 181 220 315 320 225 227 195 183 184 180 178 166 169 173 168 160 163 178 172 151 172 158 171 152 145 112 105 101 92 55 58 68 13 88 32 324 60 85 40 9 24 346 356
119 89 94 104 142 172 197 258 304 163 203 236 232 193 190 192 168 165 174 171 175 176 173 177 178 163 183 180 182 168 138 131 134 157 124 93 68 84 62 88 105 37 44 36 39 84 33 20 18
213 190 100 121 154 231 165 196 175 194 204 217 226 213 191 202 173 175 181 174 181 181 182 179 188 176 203 182 195 203 157 225 142 141 142 72 138 62 105 1 60 18 83 44 10 353 332 23 30
220 268 120 352 160 171 196 180 193 185 197 215 238 237 197 206 191 182 186 184 183 177 182 179 184 178 196 204 173 150 149 197 182 165 166 139 176 308 32 48 29 36 315 62 4 10 7 356 49
209 182 215 163 207 276 210 280 219 191 195 204 221 233 226 198 207 192 184 187 188 179 180 177 180 180 185 192 194 188 213 179 173 180 131 157 175 174 200 43 28 21 357 26 50 28 353 326 15
311 192 178 183 246 257 175 250 115 203 195 206 211 226 224 210 207 203 191 182 187 182 182 179 183 188 199 194 237 190 234 174 185 190 142 246 157 187 211 242 346 355 306 54 18 21 19 44 348
147 187 205 217 250 245 116 227 168 187 226 195 219 211 225 222 201 207 188 184 187 183 185 181 182 190 197 205 209 234 209 220 186 214 184 209 188 180 184 197 201 302 327 331 315 349 34 343 357
200 206 226 215 207 264 133 204 281 213 201 204 205 208 213 211 209 203 188 196 189 186 188 183 185 191 196 202 209 209 213 222 217 202 227 207 200 196 165 207 199 226 214 301 299 292 307 332 336
213 241 264 266 231 267 149 222 104 344 281 190 220 184 201 208 217 200 197 185 200 189 190 191 183 195 194 197 203 206 225 220 225 207 235 218 232 217 157 203 220 210 219 248 288 261 278 103 322
197 241 318 263 214 256 144 131 94 93 73 171 183 172 196 210 203 205 200 194 193 195 193 193 190 197 200 202 206 212 210 236 229 244 217 226 240 244 219 227 226 230 228 229 239 254 260 284 269
277 240 216 226 236 261 136 173 82 8 358 319 167 178 194 202 214 222 208 204 194 195 193 198 193 196 202 208 207 212 214 214 219 216 231 248 249 239 249 230 230 226 228 232 225 245 201 253 277
193 234 250 33 281 290 254 97 34 9 351 331 184 179 165 188 220 221 208 202 202 198 197 197 199 196 201 208 209 218 218 221 221 225 227 239 251 247 232 242 245 235 230 231 224 256 280 248 263
256 243 216 261 332 49 340 85 4 30 2 352 350 171 155 162 240 235 184 206 206 181 211 197 207 202 202 200 208 212 219 225 224 230 234 234 241 248 256 240 236 245 248 244 239 240 274 235 254